Simultaneous Nadir Overpasses (SNOs) Predictions

Prediction of SNOs between NOAA-19 and TERRA Satellite Orbit:

Table of predicted SNOs for the next 14.0 days since TLE Epoch: 12/1/2018
Index Date (NOAA-19) Time (NOAA-19) Lat,Lon (NOAA-19) SZA (NOAA-19 ) Date (TERRA) Time (TERRA) Lat,Lon (TERRA) SZA (TERRA ) Distance(km) Time Diff (sec)
1 12/01/2018 03:19:48 77.73, 149.21 100.28 12/01/2018 03:18:44 77.73, 149.24 100.26 0.84 64
2 12/03/2018 08:02:20 77.80, 78.29 100.63 12/03/2018 08:02:58 77.79, 78.43 100.64 3.52 38
3 12/03/2018 08:53:14 -77.73,-114.07 79.41 12/03/2018 08:52:26 -77.75,-114.09 79.41 2.76 48
4 12/05/2018 13:35:46 -77.81, 174.93 79.08 12/05/2018 13:36:41 -77.77, 174.94 79.10 4.44 55
5 12/05/2018 14:26:50 77.76, -17.52 100.89 12/05/2018 14:26:07 77.76, -17.47 100.89 1.67 43
6 12/07/2018 19:09:21 77.79, -88.27 101.16 12/07/2018 19:10:22 77.79, -88.41 101.17 3.26 61
7 12/07/2018 20:00:16 -77.78, 79.05 78.85 12/07/2018 19:59:50 -77.76, 79.09 78.88 2.91 26
8 12/10/2018 00:42:52 -78.02, 7.16 78.50 12/10/2018 00:44:02 -77.93, 8.77 78.46 38.78 70
9 12/10/2018 01:33:52 77.79, 175.68 101.37 12/10/2018 01:33:31 77.78, 175.77 101.36 2.50 21
10 12/12/2018 06:16:35 78.29, 102.24 101.83 12/12/2018 06:17:38 78.18, 106.52 102.03 97.84 63
11 12/12/2018 07:07:17 -77.80, -87.65 78.45 12/12/2018 07:07:14 -77.80, -87.60 78.46 1.40 3
12 12/14/2018 12:40:53 77.81, 9.02 101.69 12/14/2018 12:40:56 77.79, 8.95 101.67 2.23 3




NCC Satellite Simultaneous Nadir Overpasses (SNOs) Prediction Service
